#timestamp,LO_Frequency,Hit,StdDev 
1585483215.1,286046998.8,N
1585483216.0,286046998.8,N
1585483235.8,286046997.6,N
1585483255.6,286046996.1,Y
1585483275.5,286046997.7,P
1585483295.3,286046997.3,P
1585483315.2,286046997.3,P
1585483335.9,286046996.9,Y
1585483355.7,286046999.3,P
1585483375.6,286046999.5,N
1585483395.4,286046997.0,P
1585483415.3,286046997.1,N
1585483435.1,286046997.2,N
1585483436.0,286046997.2,N
1585483455.8,286046999.6,N
1585483475.7,286046996.5,Y
1585483495.5,286046998.4,P
1585483515.4,286047000.6,P
1585483535.2,286047000.9,N
1585483555.0,286046998.5,N
1585483555.9,286046998.5,N
1585483575.8,286046998.4,N
1585483595.6,286047000.8,N
1585483615.5,286046998.2,N
1585483635.3,286047000.8,N
1585483655.1,286046998.8,N
1585483675.9,286046996.9,N
1585483695.7,286046996.6,N
1585483715.5,286046997.2,N
1585483735.4,286046996.7,N
1585483755.2,286046997.1,N
1585483775.1,286046998.4,N
1585483776.0,286046998.4,N
1585483795.8,286046998.9,N
1585483815.6,286046999.7,N
1585483835.5,286047001.2,N
1585483855.3,286046999.5,N
1585483875.1,286046998.8,N
1585483895.9,286046998.1,N
1585483915.7,286047000.5,N
1585483935.6,286046999.8,N
1585483955.4,286047002.0,N
1585483975.3,286047001.4,N
1585483995.1,286047002.5,N
1585484015.8,286047001.3,N
1585484035.7,286047005.7,Y
1585484055.5,286047007.4,P
1585484075.4,286047007.0,N
1585484095.2,286047003.5,N
1585484115.0,286047004.5,N
1585484115.9,286047004.5,N
1585484135.8,286047002.9,N
1585484155.6,286047004.8,N
1585484175.5,286047004.8,N
1585484195.3,286047004.9,N
1585484215.1,286047005.5,N
1585484235.9,286047004.3,N
1585484255.7,286047003.1,N
1585484275.6,286047004.2,N
1585484295.4,286047004.7,N
1585484315.2,286047004.7,N
1585484335.1,286047005.0,N
1585484336.0,286047005.0,N
1585484355.8,286047005.2,Y
1585484375.7,286047002.4,P
1585484395.5,286047004.1,P
1585484415.3,286047004.0,P
1585484435.2,286047001.5,N
1585484455.0,286047001.6,N
1585484455.9,286047001.6,N
1585484475.8,286047002.4,N
1585484495.6,286047001.8,N
1585484515.4,286047002.5,N
1585484535.3,286047001.9,N
1585484555.1,286047003.2,Y
1585484575.9,286047002.5,P
1585484595.7,286047002.2,P
1585484615.5,286047001.9,P
1585484635.4,286047000.3,N
1585484655.2,286047001.2,N
1585484675.0,286046998.4,N
1585484676.0,286046998.4,N
1585484695.8,286046998.8,N
1585484715.6,286046998.6,N
1585484735.5,286046998.8,N
1585484755.3,286046998.8,N
1585484775.1,286046999.9,N
1585484795.9,286046999.7,N
1585484815.7,286047001.6,N
1585484835.6,286047001.9,N
1585484855.4,286047002.8,N
1585484875.3,286047001.8,N
1585484895.1,286047001.6,N
1585484896.0,286047001.6,N
1585484915.8,286047003.2,N
1585484935.7,286047004.1,N
1585484955.5,286047000.1,N
1585484975.3,286047002.1,N
1585484995.2,286047001.9,N
1585485015.0,286047002.5,N
1585485015.9,286047002.5,N
1585485035.8,286047004.1,N
1585485055.6,286047001.7,N
1585485075.4,286047004.1,N
1585485095.3,286047002.5,N
1585485115.1,286046999.7,N
1585485135.9,286047002.3,N
1585485155.8,286047000.2,N
1585485175.6,286047002.6,N
1585485195.5,286047002.3,N
1585485215.3,286047002.6,N
1585485235.1,286047002.6,N
1585485255.9,286047001.8,N
1585485275.7,286047002.6,N
1585485295.5,286047002.1,N
1585485315.4,286047001.9,N
1585485335.2,286047004.1,Y
1585485355.1,286047002.6,P
1585485356.0,286047002.6,P
1585485375.8,286047002.3,P
1585485395.6,286047001.3,Y
1585485415.5,286047001.1,P
1585485435.3,286047002.2,P
1585485455.2,286046999.7,N
1585485475.9,286047001.6,N
1585485495.7,286047004.0,Y
1585485515.6,286046999.7,P
1585485535.4,286046998.9,N
1585485555.3,286046998.4,N
1585485575.1,286047001.7,N
1585485576.0,286047001.7,N
1585485595.8,286047003.3,N
1585485615.7,286047003.4,N
1585485635.5,286047003.2,N
1585485655.3,286047003.4,N
1585485675.2,286047003.5,N
1585485695.0,286047003.2,N
1585485695.9,286047003.2,N
1585485715.8,286047015.8,Y
1585485735.6,286047011.8,P
1585485755.4,286047004.5,N
1585485775.3,286047003.9,N
1585485795.1,286046999.4,N
1585485815.9,286046996.4,N
1585485835.7,286046994.2,N
1585485855.5,286046992.0,N
1585485875.4,286046990.5,N
1585485895.2,286046989.3,N
1585485915.0,286046988.2,N
1585485915.9,286046988.2,N
1585485935.8,286046986.0,N
1585485955.6,286046982.3,N
1585485975.5,286046981.7,N
1585485995.3,286046982.0,N
1585486015.1,286046979.5,N
1585486035.9,286046979.6,N
1585486055.7,286046979.0,N
1585486075.5,286046979.3,N
1585486095.4,286046979.8,N
1585486115.2,286046980.0,N
1585486135.1,286046977.6,N
1585486136.0,286046977.6,N
1585486155.8,286046979.2,N
1585486175.6,286046979.6,N
1585486195.5,286046979.0,N
1585486215.3,286046979.5,N
1585486235.2,286046978.5,N
1585486255.9,286046976.8,N
1585486275.7,286046974.2,N
1585486295.6,286046976.2,N
1585486315.4,286046978.5,N
1585486335.3,286046979.1,N
1585486355.1,286046977.7,Y
1585486356.0,286046977.7,P
1585486375.8,286046996.5,N
1585486395.7,286047000.5,N
1585486415.5,286046999.8,N
1585486435.4,286047002.3,N
1585486455.2,286047004.1,N
1585486475.0,286047001.5,N
1585486475.9,286047001.5,N
1585486495.8,286047000.8,N
1585486515.6,286047000.7,N
1585486535.5,286047000.3,N
1585486555.3,286046998.5,N
1585486575.1,286047001.4,N
1585486595.9,286047002.1,N
1585486615.7,286047004.1,N
1585486635.6,286047002.4,N
1585486655.4,286047001.5,N
1585486675.2,286047001.9,N
1585486695.1,286047000.0,N
1585486696.0,286047000.0,N
1585486715.8,286047002.5,N
1585486735.7,286047001.6,N
1585486755.5,286047001.5,N
1585486775.3,286047005.8,N
1585486795.2,286047003.2,N
